map of HEY home
HEY - Heliport
Location
City:  Fort Rucker, Alabama, United States
Near (Alt.):Ozark
Name:Hanchey Army Heliport
Old (Alt.):Fort Rucker
ICAO:KHEY
IATA:HEY
FAA LID:HEY

Details
Type:Heliport
Use:Military
Latitude:3121'21"N (31.355734)
Longitude:8539'07"W (-85.651862)
Datum:WGS 1984
Elevation:317 ft (97 m)
Variation:4.03W (WMM2015v2 magnetic declination)
-0.07 annual change
Helipads:1
Largest:476 × 50 ft (145 × 15 m), paved

Time
Time Zone:UTC-6 (DST-5)
Local Time:

Weather
METAR:KHEY 041413Z AUTO 09003KT 6SM BR SCT002 OVC018 12/12 A3008 RMK AO2 CIG 002V018 SLP188

Related Locations
Nearby:
Farthest:USL: 11236 mi / 18083 km
Useless Loop, WA, AU

Find:

   beyond  
but within

Other Information
Maps:
NOTAMs:
Links:
Sources:

  
  • flag of United States
  • flag of Alabama
  

Sectional Chart

Flight Planning
at skyvector.com

Satellite Image

Google Maps Satellite view

 

Copyright © 2004-2019 Karl L. Swartz. All rights reserved.
The Great Circle Mapper name and logo are trademarks of the Great Circle Mapper.
All other trademarks mentioned herein belong to their respective owners.
Please see credits for attibutions and further copyright information.

  Follow gcmap on Facebook Follow gcmap on Twitter GCmap on LinkedIn

hCard Microformat

Geo Microformat